CZ-6A DEB, 60896

Orbit data source: Space-Track

CZ-6A DEB, 60896 is space debris in LEO originally from a launch on Tue, 06 Aug 2024 UTC launched from the Taiyaun Space Center, China (TSC). Debris objects in space refer to the collection of defunct objects orbiting the Earth. Examples of debris include non-operational satellites, rocket bodies, and fragments generated from explosions, collisions, or faulty payload assembly.

Loading next visibility...
Identifier
60896, 2024-140LB
Orbit
LEO
Country
Flag of CNCN / PRC
Related business
Manufacturer
SAST
Mission
Spacecraft
Bus & Motor
Unknown
Mass
Unknown
Launch date (UTC)
2024-08-06 (1 year ago)
Launch vehicle
Unknown
Launch site
Taiyaun Space Center, China (TSC)
Object type
Payload
Rocket body
Debris
Shape & HBR
Unknown shape, 0.1 m
Radar Cross Section
Small (<0.1 m²)

Expand to show TLE details & history
Last TLE update: 8 hours ago

TLE from 8 hours ago
0 CZ-6A DEB
1 60896U 24140LB  25343.14793520  .00002948  00000-0  11427-2 0  9998
2 60896  88.3369 256.9614 0058536 344.9484  14.9966 14.28821100 68123
Epoch: 2025-12-09T03:33Z
TLE epoch observation values (Epoch: 2025-12-09T03:33:01.601Z)
Latitude
-0°
Longitude
125.56795°
Altitude
758.182 km
Speed
7.496 km/s
True Right ascension
17h 07m 50s
True Declination
0° 00' 00"
Sunlit
Object was in daylight at epoch
Visualization orbit readout
Latitude
Unknown
Longitude
Unknown
Altitude
Unknown
Speed
Unknown
Apparent Right ascension
Unknown
Apparent Declination
Unknown
Sunlit
N/A
Visualization observer readout
Local Sidereal Time
10:15:20
Azimuth
Unknown
Elevation
Unknown
Doppler factor
Unknown
Orbital elements
Apogee altitude
834.592 km
Perigee altitude
750.643 km
Semi-major axis
7,170.754 km
Eccentricity
0.00585
Inclination
88.3369°
RAAN
256.9614°
Arg. of periapsis
344.9484°
True anomaly
15.17141°
Mean anomaly
14.9966°
Eccentric anomaly
15.08388°
Mean motion
3.57434 °/min
Orbital period
100.72 mins
BSTAR
0.0011427
Loading maneuver chart data...
Computing Atmospheric mass density...
Loading historical data...
Loading historical data...
Loading historical data...
Loading historical data...
Loading historical data...
Loading historical data...
Loading historical data...

Documentation

Showing up to 5 results
|